Regional Weather Roundup
Issued by NWS

Home | Current Version | Previous Version | Text Only | Print | Product List | Glossary Off
Versions: 1 2 3 4 5 6 7 8 9 10 11 12 13 14 15 16 17 18 19 20 21 22 23 24 25 26 27 28 29 30 31 32 33 34 35 36 37 38 39 40 41 42 43 44 45 46 47 48 49 50

160
ASUS43 KIND 040109
RWRIN

WEATHER ROUNDUP FOR INDIANA
NATIONAL WEATHER SERVICE INDIANAPOLIS IN
900 PM EDT TUE MAY 03 2016

NOTE: "FAIR" INDICATES FEW OR NO CLOUDS BELOW 12,000 FEET WITH NO
SIGNIFICANT WEATHER AND/OR OBSTRUCTIONS TO VISIBILITY.

* - STATION DOES NOT REPORT WEATHER SUCH AS PRECIPITATION OR FOG.

+ - STATION NOT QUALITY CONTROLLED BY THE NATIONAL WEATHER SERVICE.
    USE DATA WITH CAUTION...ESPECIALLY DEWPOINT AND RELATIVE
    HUMIDITY OBSERVATIONS.

INZ001>003-010>013-019-020-040200-
NORTHWEST INDIANA

CITY           SKY/WX    TMP DP  RH WIND       PRES   REMARKS
GARY /AIRPORT/ MOCLDY    64  46  52 W9        29.79S
KNOX *+        CLOUDY    57  32  38 SW5       29.80S
LA PORTE +     MOCLDY    59  44  57 S3        29.80S
MICHIGAN CITY+ CLOUDY    59  41  51 S3        29.79S
MONTICELLO +   CLOUDY    59  39  48 SW3       29.82S
RENSSELAER +   MOCLDY    59  43  55 SW6       29.82S
VALPARAISO     CLOUDY    60  40  47 SW7       29.80F

$$

LMZ046-743>745-040200-
SOUTHERN LAKE MICHIGAN

STATION/POSITION TIME  TEMP    WIND        PRES    WAVE
                       AIR SEA DIR/SP/G            HT
                 (UTC) (F)     (DEG/KT/KT) (MB)    (FT)
BURNS HARBOR     0000   61     240/  8/ 11 1009.1F
MICHIGAN CITY    0000   62     200/ 10/ 11   N/A

$$

INZ004-005-014>016-021>024-040200-
NORTH CENTRAL INDIANA

CITY           SKY/WX    TMP DP  RH WIND       PRES   REMARKS
ELKHART        CLOUDY    59  41  51 SW3       29.80S
GOSHEN         CLOUDY    56  42  59 S5        29.80S
LOGANSPORT +   CLOUDY    55  46  71 SW6       29.83S
PERU/GRISSOM   CLEAR     54  46  76 S8        29.82S
ROCHESTER +    CLOUDY    59  43  55 SW3       29.82S
SOUTH BEND     CLOUDY    59  38  45 SW6       29.80S
WARSAW +       CLOUDY    55  37  50 CALM      29.81S

$$

INZ006>009-017-018-025>027-040200-
NORTHEAST INDIANA

CITY           SKY/WX    TMP DP  RH WIND       PRES   REMARKS
ANGOLA *+      PTCLDY    55  45  67 CALM      29.80S
AUBURN +       CLEAR     54  41  62 S3        29.82S
FORT WAYNE     CLEAR     53  44  71 S7        29.83S
HUNTINGTON +   PTCLDY    56  42  59 SW3       29.83S

$$

INZ028-029-035-036-043>045-051>053-040200-
WEST CENTRAL INDIANA

CITY           SKY/WX    TMP DP  RH WIND       PRES   REMARKS
CRAWFORDSVL +  CLOUDY    56  45  65 SW6       29.86S
GREENCASTLE +  PTCLDY    52  46  82 CALM      29.87S
LAFAYETTE      CLOUDY    58  42  55 W5        29.83S
TERRE HAUTE    CLOUDY    59  44  57 W6        29.87S

$$

INZ030>032-037>040-046>048-054>057-064-065-040200-
CENTRAL INDIANA

CITY           SKY/WX    TMP DP  RH WIND       PRES   REMARKS
CP ATTERBURY + CLEAR     54  46  76 CALM      29.88S
COLUMBUS       CLEAR     54  50  87 CALM      29.88S
FRANKFORT +      N/A     57  39  50 CALM      29.86S
GREENWOOD *+   CLEAR     54  46  76 SE3       29.87S
INDIANAPOLIS   PTCLDY    56  37  49 SW5       29.85S
-EAGLE CREEK   MOCLDY    55  45  68 S3        29.85S
KOKOMO *+      MOCLDY    54  45  71 S6        29.83S
MARION +       CLEAR     54  46  75 S5        29.85S
SHELBYVILLE    CLEAR     57  47  69 S5        29.86S
ZIONSVILLE +   MOCLDY    54  46  75 S5        29.86S

$$

INZ033-034-041-042-049-050-058-059-040200-
EAST CENTRAL INDIANA

CITY           SKY/WX    TMP DP  RH WIND       PRES   REMARKS
MUNCIE         CLEAR     56  43  61 SW3       29.85S

$$

INZ060-061-067>069-081>083-085>088-040200-
SOUTHWEST INDIANA

CITY           SKY/WX    TMP DP  RH WIND       PRES   REMARKS
EVANSVILLE     MOCLDY    57  44  62 W5        29.92S
HUNTINGBURG *+ CLEAR     55  43  62 W7        29.91R
WASHINGTON +   CLOUDY    58  48  70 SW6       29.89S

$$

INZ062-063-066-070>080-084-089>092-040200-
SOUTH CENTRAL AND SOUTHEAST INDIANA

CITY           SKY/WX    TMP DP  RH WIND       PRES   REMARKS
BEDFORD +      CLEAR     54  52  94 S3        29.88
BLOOMINGTON    MOCLDY    54  46  74 CALM      29.88R
MADISON *+     CLOUDY    54  48  82 CALM      29.90S
NORTH VERNON + PTCLDY    54  54 100 CALM      29.89
SEYMOUR +      PTCLDY    55  50  82 CALM      29.89R

$$





USA.gov is the U.S. government's official web portal to all federal, state and local government web resources and services.